Tracking 20623 objects as of 2-Apr-2020
HD Live streaming from Space Station
objects crossing your sky now

HETE 2

Track HETE 2 now!
10-day predictions
HETE 2 is classified as:


NORAD ID: 26561
Int'l Code: 2000-061A
Perigee: 536.5 km
Apogee: 561.5 km
Inclination: 1.9 °
Period: 95.5 minutes
Semi major axis: 6919 km
RCS: 0.631 m2 (medium)
Launch date: October 9, 2000
Source: United States (US)
Launch site: Kwajalein (KWAJ)

Designed to detect and localize gamma-ray bursts.
aabbcc
Your satellite tracking list
Your tracking list is empty




NASA's NSSDC Master Catalog

Two Line Element Set (TLE):
1 26561U 00061A   20093.03243649 +.00001346 +00000-0 +27995-4 0  9992
2 26561 001.9495 294.8622 0018020 196.6495 163.2955 15.08152046069068
Source of the keplerian elements: AFSPC